Location: Central Falls
(41.8900°N, 71.3929°W)
Time: 12:47:49
(UTC+00:00)

A-11 Canister half - Pass Details

Date: 11 December 2023
Orbit: 1526 x 1682 km, 47.3° (Epoch: 20 February)

Event Time Altitude Azimuth Distance (km) Brightness Sun altitude
Rises 02:22:01 0° 288° (WNW) 4,936 12.2 -55.9°
Reaches altitude 10° 02:25:14 10° 290° (WNW) 3,943 11.5 -56.4°
Enters shadow 02:28:36 24° 295° (WNW) 2,950 10.7 -57.0°
Maximum altitude 02:35:24 73° 15° (NNE) 1,725 - -58.1°
Drops below altitude 10° 02:45:18 10° 100° (E) 3,849 - -59.8°
Sets 02:48:23 0° 103° (ESE) 4,814 - -60.3°
